Boothville, LA

12:49 PM CST on February 23, 2017 (GMT -0600)
Boothville

Weather History for KBVE - June, 2013

Change the Weather History Date:

Friday, June 7, 2013

  Actual Average (KAXO) Record (KAXO)
Temperature  
Mean Temperature 78 °F -  
Max Temperature 84 °F 80 °F 89 °F (2007)
Min Temperature 73 °F 77 °F 73 °F (2004)
Cooling Degree Days 12    
Growing Degree Days 28 (Base 50)    
Moisture  
Dew Point 71 °F    
Average Humidity 77    
Maximum Humidity 90    
Minimum Humidity 65    
Precipitation  
Precipitation 0.01 in - - ()
Sea Level Pressure  
Sea Level Pressure 29.86 in    
Wind  
Wind Speed 5 mph (WSW)    
Max Wind Speed 10 mph    
Max Gust Speed -    
Visibility 10 miles    
Events      
Averages and records for this station are not official NWS values.
T = Trace of Precipitation, MM = Missing Value Source: NWS Daily Summary

Daily Weather History Graph

Daily Weather History Graph

Search for Another Location

Airport or City:

Trip Planner

Search our weather history database for the weather conditions in past years. The results will help you decide how hot, cold, wet, or windy it might be!

Date:

Astronomy

Jun. 07, 2013 Rise Set
Actual Time 5:57 AM CDT 7:55 PM CDT
Civil Twilight 5:30 AM CDT 8:22 PM CDT
Nautical Twilight 4:57 AM CDT 8:55 PM CDT
Astronomical Twilight 4:23 AM CDT 9:30 PM CDT
Moon 5:15 AM CDT (6/7) 7:13 PM CDT (6/7)
Length of Visible Light 14h 52m
Length of Day
13h 58m
Waning Crescent, 1% of the Moon is Illuminated
Jun 7
Waning Crescent
Jun 8
New
Jun 16
First Quarter
Jun 23
Full
Jun 29
Last Quarter

Hourly Weather History & Observations

Time (CDT) Temp. Heat Index Dew Point Humidity Pressure Visibility Wind Dir Wind Speed Gust Speed Precip Events Conditions
12:51 AM 75.9 °F - 71.1 °F 85% 29.85 in 10.0 mi WNW 6.9 mph - N/A   Scattered Clouds
1:51 AM 75.0 °F - 72.0 °F 90% 29.83 in 10.0 mi West 3.5 mph - N/A   Clear
2:51 AM 75.0 °F - 71.1 °F 87% 29.80 in 10.0 mi Calm Calm - N/A   Clear
3:51 AM 75.0 °F - 71.1 °F 87% 29.79 in 10.0 mi Calm Calm - N/A   Clear
4:51 AM 73.9 °F - 70.0 °F 87% 29.81 in 10.0 mi Calm Calm - N/A   Clear
5:51 AM 75.0 °F - 72.0 °F 90% 29.82 in 10.0 mi Calm Calm - N/A   Clear
6:51 AM 75.0 °F - 72.0 °F 90% 29.84 in 10.0 mi WNW 5.8 mph - 0.01 in   Clear
7:51 AM 78.1 °F - 71.1 °F 79% 29.86 in 10.0 mi WNW 6.9 mph - N/A   Partly Cloudy
8:51 AM 78.1 °F - 70.0 °F 76% 29.87 in 10.0 mi WNW 5.8 mph - N/A   Mostly Cloudy
9:51 AM 78.1 °F - 69.1 °F 74% 29.88 in 10.0 mi West 8.1 mph - N/A   Overcast
10:51 AM 80.1 °F 83.2 °F 70.0 °F 71% 29.89 in 10.0 mi West 10.4 mph - N/A   Mostly Cloudy
11:51 AM 81.0 °F 85.2 °F 72.0 °F 74% 29.89 in 10.0 mi West 8.1 mph - N/A   Partly Cloudy
12:51 PM 82.0 °F 86.3 °F 71.1 °F 69% 29.90 in 10.0 mi West 8.1 mph - N/A   Clear
1:51 PM 82.0 °F 85.9 °F 70.0 °F 67% 29.88 in 10.0 mi West 10.4 mph - N/A   Clear
2:51 PM 82.9 °F 87.0 °F 70.0 °F 65% 29.87 in 10.0 mi West 8.1 mph - N/A   Clear
3:51 PM 82.9 °F 87.5 °F 71.1 °F 67% 29.86 in 10.0 mi WSW 9.2 mph - N/A   Clear
4:51 PM 82.9 °F 87.5 °F 71.1 °F 67% 29.85 in 10.0 mi WSW 8.1 mph - N/A   Clear
5:51 PM 82.0 °F 86.3 °F 71.1 °F 69% 29.84 in 10.0 mi SW 8.1 mph - N/A   Clear
6:51 PM 82.0 °F 86.7 °F 72.0 °F 71% 29.85 in 10.0 mi WSW 6.9 mph - N/A   Partly Cloudy
7:51 PM 80.1 °F 83.8 °F 72.0 °F 76% 29.86 in 10.0 mi SW 4.6 mph - N/A   Clear
8:51 PM 80.1 °F 83.8 °F 72.0 °F 76% 29.88 in 10.0 mi WSW 5.8 mph - N/A   Clear
9:51 PM 80.1 °F 83.6 °F 71.1 °F 74% 29.90 in 10.0 mi SSW 4.6 mph - N/A   Clear
10:51 PM 80.1 °F 83.8 °F 72.0 °F 76% 29.91 in 10.0 mi SSW 6.9 mph - N/A   Clear
11:51 PM 80.1 °F 83.8 °F 72.0 °F 76% 29.92 in 10.0 mi SSW 8.1 mph - N/A   Clear